Holdrege, NE

7:26 AM CDT on April 26, 2017 (GMT -0500)
Brewster

Weather History for KHDE - February, 2013

Change the Weather History Date:

Tuesday, February 26, 2013

  Actual Average Record
Temperature  
Mean Temperature 20 °F -  
Max Temperature 28 °F 47 °F 75 °F (1986)
Min Temperature 12 °F 24 °F -5 °F (2014)
Degree Days  
Heating Degree Days 45    
Moisture  
Dew Point 18 °F    
Average Humidity 88    
Maximum Humidity 93    
Minimum Humidity 80    
Precipitation  
Precipitation 0.00 in - - ()
Sea Level Pressure  
Sea Level Pressure 29.86 in    
Wind  
Wind Speed 7 mph (NNW)    
Max Wind Speed 12 mph    
Max Gust Speed -    
Visibility 8 miles    
Events Fog    
Averages and records for this station are not official NWS values.
T = Trace of Precipitation, MM = Missing Value Source: NWS Daily Summary

Daily Weather History Graph

Daily Weather History Graph

Search for Another Location

Airport or City:

Trip Planner

Search our weather history database for the weather conditions in past years. The results will help you decide how hot, cold, wet, or windy it might be!

Date:

Astronomy

Feb. 26, 2013 Rise Set
Actual Time 7:15 AM CST 6:25 PM CST
Civil Twilight 6:47 AM CST 6:53 PM CST
Nautical Twilight 6:16 AM CST 7:24 PM CST
Astronomical Twilight 5:44 AM CST 7:56 PM CST
Moon 7:44 PM CST 7:18 AM CST
Length of Visible Light 12h 05m
Length of Day
11h 10m
Full, 99% of the Moon is Illuminated
Feb 26
Full
Mar 4
Last Quarter
Mar 11
New
Mar 19
First Quarter
Mar 27
Full

Hourly Weather History & Observations

Time (CST) Temp. Windchill Dew Point Humidity Pressure Visibility Wind Dir Wind Speed Gust Speed Precip Events Conditions
12:15 AM 19.6 °F 8.9 °F 16.5 °F 88% 29.88 in 10.0 mi NNW 9.2 mph - N/A   Clear
12:35 AM 20.1 °F 11.3 °F 16.7 °F 87% 29.89 in 10.0 mi NNW 6.9 mph - N/A   Clear
12:55 AM 18.0 °F 9.8 °F 14.5 °F 86% 29.90 in 10.0 mi NNW 5.8 mph - N/A   Clear
1:15 AM 17.2 °F 7.8 °F 14.0 °F 87% 29.90 in 10.0 mi NNW 6.9 mph - N/A   Clear
1:35 AM 15.8 °F 6.1 °F 12.4 °F 86% 29.90 in 10.0 mi NW 6.9 mph - N/A   Clear
1:55 AM 18.0 °F 7.7 °F 15.3 °F 89% 29.88 in 10.0 mi NNW 8.1 mph - N/A   Clear
2:15 AM 17.2 °F 6.8 °F 14.4 °F 88% 29.87 in 10.0 mi NNW 8.1 mph - N/A   Clear
2:35 AM 14.4 °F 3.3 °F 11.3 °F 88% 29.87 in 10.0 mi NW 8.1 mph - N/A   Clear
2:55 AM 16.7 °F 4.5 °F 14.5 °F 91% 29.86 in 10.0 mi NNW 10.4 mph - N/A   Clear
3:15 AM 16.9 °F 4.8 °F 14.2 °F 89% 29.85 in 10.0 mi NNW 10.4 mph - N/A   Clear
3:35 AM 15.8 °F 2.7 °F 13.1 °F 89% 29.84 in 10.0 mi NNW 11.5 mph - N/A   Clear
3:55 AM 15.6 °F 4.0 °F 12.7 °F 88% 29.84 in 10.0 mi NNW 9.2 mph - N/A   Scattered Clouds
4:15 AM 14.9 °F 3.1 °F 12.2 °F 89% 29.83 in 10.0 mi NW 9.2 mph - N/A   Mostly Cloudy
4:35 AM 12.9 °F 0.7 °F 10.2 °F 89% 29.83 in 10.0 mi NNW 9.2 mph - N/A   Scattered Clouds
4:55 AM 13.8 °F 2.7 °F 11.5 °F 90% 29.83 in 10.0 mi NNW 8.1 mph - N/A   Mostly Cloudy
5:15 AM 12.2 °F 1.7 °F 9.5 °F 89% 29.83 in 10.0 mi NW 6.9 mph - N/A   Mostly Cloudy
5:35 AM 13.8 °F 3.7 °F 11.8 °F 92% 29.82 in 1.5 mi NNW 6.9 mph - N/A   Overcast
5:55 AM 14.2 °F 4.1 °F 11.8 °F 90% 29.82 in 10.0 mi North 6.9 mph - N/A   Mostly Cloudy
6:15 AM 12.6 °F 4.8 °F 9.7 °F 88% 29.83 in 10.0 mi NNW 4.6 mph - N/A   Mostly Cloudy
6:35 AM 12.0 °F 1.5 °F 9.3 °F 89% 29.84 in 0.5 mi NE 6.9 mph - N/A Fog Light Freezing Fog
6:55 AM 13.1 °F 7.1 °F 10.4 °F 89% 29.84 in 0.5 mi NNW 3.5 mph - N/A Fog Light Freezing Fog
7:15 AM 14.0 °F 5.1 °F 11.7 °F 90% 29.85 in 5.0 mi North 5.8 mph - N/A   Overcast
7:35 AM 13.6 °F 4.6 °F 10.9 °F 89% 29.85 in 2.5 mi WNW 5.8 mph - N/A   Overcast
7:55 AM 12.9 °F 2.6 °F 10.2 °F 89% 29.84 in 1.8 mi NW 6.9 mph - N/A   Overcast
8:15 AM 14.4 °F 4.3 °F 11.8 °F 90% 29.85 in 0.2 mi NW 6.9 mph - N/A Fog Light Freezing Fog
8:35 AM 16.2 °F 5.5 °F 13.8 °F 90% 29.85 in 0.2 mi NW 8.1 mph - N/A Fog Light Freezing Fog
8:55 AM 17.2 °F 6.8 °F 14.9 °F 91% 29.84 in 0.2 mi NNW 8.1 mph - N/A Fog Light Freezing Fog
9:15 AM 17.2 °F 7.8 °F 14.9 °F 91% 29.84 in 0.2 mi NNW 6.9 mph - N/A Fog Light Freezing Fog
9:35 AM 17.6 °F 9.3 °F 15.4 °F 91% 29.84 in 0.2 mi North 5.8 mph - N/A Fog Light Freezing Fog
9:55 AM 17.4 °F 8.0 °F 15.1 °F 91% 29.84 in 0.8 mi North 6.9 mph - N/A   Overcast
10:15 AM 17.6 °F 10.7 °F 15.3 °F 91% 29.84 in 0.5 mi North 4.6 mph - N/A Fog Light Freezing Fog
10:35 AM 19.2 °F 12.5 °F 16.9 °F 91% 29.84 in 0.2 mi North 4.6 mph - N/A Fog Light Freezing Fog
10:55 AM 19.9 °F 11.1 °F 17.8 °F 91% 29.84 in 0.5 mi North 6.9 mph - N/A Fog Light Freezing Fog
11:15 AM 20.7 °F 11.9 °F 18.5 °F 91% 29.84 in 0.5 mi North 6.9 mph - N/A Fog Light Freezing Fog
11:35 AM 21.2 °F 12.6 °F 19.4 °F 93% 29.84 in 2.5 mi North 6.9 mph - N/A   Overcast
11:55 AM 21.2 °F 11.7 °F 19.4 °F 93% 29.84 in 5.0 mi North 8.1 mph - N/A   Overcast
12:15 PM 22.1 °F 11.3 °F 20.1 °F 92% 29.84 in 7.0 mi North 10.4 mph - N/A   Mostly Cloudy
12:35 PM 22.5 °F 12.4 °F 20.5 °F 92% 29.83 in 7.0 mi North 9.2 mph - N/A   Scattered Clouds
12:55 PM 23.4 °F 13.5 °F 21.6 °F 93% 29.83 in 10.0 mi North 9.2 mph - N/A   Mostly Cloudy
1:15 PM 23.7 °F 13.3 °F 21.7 °F 92% 29.83 in 10.0 mi North 10.4 mph - N/A   Scattered Clouds
1:35 PM 23.9 °F 13.5 °F 22.1 °F 93% 29.82 in 10.0 mi North 10.4 mph - N/A   Scattered Clouds
1:55 PM 24.6 °F 15.1 °F 22.1 °F 90% 29.82 in 10.0 mi North 9.2 mph - N/A   Clear
2:15 PM 24.8 °F 15.3 °F 21.7 °F 88% 29.81 in 10.0 mi North 9.2 mph - N/A   Clear
2:35 PM 25.3 °F 16.7 °F 21.7 °F 86% 29.81 in 10.0 mi North 8.1 mph - N/A   Clear
2:55 PM 25.5 °F 16.9 °F 21.9 °F 86% 29.81 in 10.0 mi North 8.1 mph - N/A   Clear
3:15 PM 27.0 °F 18.7 °F 22.5 °F 83% 29.82 in 10.0 mi North 8.1 mph - N/A   Clear
3:35 PM 27.3 °F 18.4 °F 22.5 °F 82% 29.82 in 10.0 mi North 9.2 mph - N/A   Clear
3:55 PM 27.5 °F 18.6 °F 23.0 °F 83% 29.83 in 10.0 mi North 9.2 mph - N/A   Clear
4:15 PM 28.4 °F 21.2 °F 23.4 °F 81% 29.83 in 10.0 mi North 6.9 mph - N/A   Clear
4:35 PM 28.4 °F 20.4 °F 23.4 °F 81% 29.83 in 10.0 mi NNE 8.1 mph - N/A   Clear
4:55 PM 28.8 °F 21.7 °F 23.2 °F 80% 29.84 in 10.0 mi North 6.9 mph - N/A   Clear
5:15 PM 28.4 °F 21.2 °F 23.5 °F 82% 29.84 in 10.0 mi North 6.9 mph - N/A   Clear
5:35 PM 27.7 °F 20.4 °F 23.2 °F 83% 29.85 in 10.0 mi North 6.9 mph - N/A   Clear
5:55 PM 27.0 °F 19.5 °F 23.2 °F 86% 29.86 in 10.0 mi North 6.9 mph - N/A   Clear
6:15 PM 27.3 °F 20.9 °F 23.2 °F 84% 29.87 in 10.0 mi North 5.8 mph - N/A   Clear
6:35 PM 25.9 °F 20.3 °F 22.1 °F 86% 29.88 in 10.0 mi NNW 4.6 mph - N/A   Clear
6:55 PM 26.4 °F 18.9 °F 22.8 °F 86% 29.89 in 10.0 mi North 6.9 mph - N/A   Clear
7:15 PM 26.1 °F 21.9 °F 22.3 °F 86% 29.89 in 10.0 mi North 3.5 mph - N/A   Clear
7:35 PM 24.3 °F 18.4 °F 21.2 °F 88% 29.89 in 10.0 mi North 4.6 mph - N/A   Clear
7:55 PM 25.7 °F 19.0 °F 22.6 °F 88% 29.90 in 10.0 mi North 5.8 mph - N/A   Clear
8:15 PM 25.2 °F 19.5 °F 22.1 °F 88% 29.90 in 10.0 mi North 4.6 mph - N/A   Clear
8:35 PM 24.3 °F 19.9 °F 21.2 °F 88% 29.91 in 10.0 mi NNW 3.5 mph - N/A   Clear
8:55 PM 23.5 °F 17.6 °F 21.0 °F 90% 29.91 in 7.0 mi NW 4.6 mph - N/A   Clear
9:15 PM 23.9 °F 16.8 °F 21.2 °F 89% 29.92 in 7.0 mi NW 5.8 mph - N/A   Mostly Cloudy
9:35 PM 24.8 °F 19.1 °F 22.1 °F 89% 29.93 in 10.0 mi WNW 4.6 mph - N/A   Overcast
9:55 PM 24.8 °F 19.1 °F 21.9 °F 89% 29.93 in 10.0 mi WNW 4.6 mph - N/A   Overcast
10:15 PM 25.0 °F 18.1 °F 22.1 °F 89% 29.93 in 10.0 mi NW 5.8 mph - N/A   Overcast
10:55 PM 26.2 °F 18.6 °F 23.5 °F 90% 29.93 in 10.0 mi NNW 6.9 mph - N/A   Overcast
11:15 PM 26.6 °F 19.1 °F 23.5 °F 88% 29.93 in 10.0 mi NNW 6.9 mph - N/A   Overcast
11:35 PM 26.1 °F 18.4 °F 23.4 °F 90% 29.94 in 10.0 mi NNW 6.9 mph - N/A   Overcast
11:55 PM 26.1 °F 19.4 °F 23.0 °F 88% 29.94 in 10.0 mi NNW 5.8 mph - N/A   Overcast